EJA337 KSDL-KVGT

Flight info

Callsign EJA337
Flight time 0h 50m
Altitude 26000
Route MAYSA7 RRSTA GUILE NTNDO1
Aircraft E55P/M-SBDGRW/LB2

Departure

Time 2026-04-23 13:39
Airport Scottsdale Airport (KSDL)

Arrival

Time 2026-04-23 14:30
Airport North Las Vegas Airport (KVGT)
Time Latitude Longitude Altitude Speed Heading
2026-04-23 13:23 33.62022 -111.91572 1459 ft 0 kts 313°
2026-04-23 13:34 33.62023 -111.91572 1459 ft 0 kts 313°
2026-04-23 13:34 33.62045 -111.91575 1459 ft 4 kts 40°
2026-04-23 13:34 33.62033 -111.91528 1459 ft 10 kts 136°
2026-04-23 13:34 33.62042 -111.91454 1460 ft 12 kts 43°
2026-04-23 13:35 33.62117 -111.91367 1463 ft 17 kts 44°
2026-04-23 13:35 33.62216 -111.91253 1467 ft 21 kts 44°
2026-04-23 13:35 33.62325 -111.91126 1472 ft 22 kts 44°
2026-04-23 13:35 33.62439 -111.90995 1476 ft 22 kts 44°
2026-04-23 13:36 33.62547 -111.90870 1481 ft 20 kts 44°
2026-04-23 13:36 33.62655 -111.90745 1485 ft 22 kts 44°
2026-04-23 13:36 33.62776 -111.90606 1487 ft 25 kts 44°
2026-04-23 13:36 33.62907 -111.90454 1493 ft 25 kts 44°
2026-04-23 13:37 33.63034 -111.90308 1498 ft 24 kts 45°
2026-04-23 13:37 33.63119 -111.90210 1502 ft 10 kts 43°
2026-04-23 13:37 33.63137 -111.90173 1503 ft 1 kts 101°
2026-04-23 13:37 33.63136 -111.90170 1503 ft 0 kts 109°
2026-04-23 13:38 33.63121 -111.90143 1503 ft 6 kts 133°
2026-04-23 13:39 33.63078 -111.90143 1502 ft 8 kts 223°
2026-04-23 13:39 33.62912 -111.90334 1495 ft 74 kts 224°
2026-04-23 13:39 33.62345 -111.90985 1604 ft 136 kts 224°
2026-04-23 13:39 33.61635 -111.91821 2278 ft 155 kts 236°
2026-04-23 13:40 33.61356 -111.93079 2956 ft 173 kts 279°
2026-04-23 13:40 33.62024 -111.94318 3694 ft 191 kts 324°
2026-04-23 13:40 33.63284 -111.94861 4379 ft 202 kts 344°
2026-04-23 13:40 33.64676 -111.95261 4886 ft 209 kts 343°
2026-04-23 13:41 33.66105 -111.95664 4993 ft 213 kts 344°
2026-04-23 13:41 33.67554 -111.96072 5003 ft 216 kts 343°
2026-04-23 13:41 33.69032 -111.96497 5171 ft 214 kts 343°
2026-04-23 13:41 33.70475 -111.96880 5647 ft 212 kts 344°
2026-04-23 13:42 33.71852 -111.97393 6305 ft 208 kts 332°
2026-04-23 13:42 33.73013 -111.98407 6987 ft 212 kts 315°
2026-04-23 13:42 33.74141 -111.99651 7591 ft 234 kts 313°
2026-04-23 13:42 33.75369 -112.01060 8279 ft 251 kts 313°
2026-04-23 13:43 33.76635 -112.02567 9030 ft 264 kts 311°
2026-04-23 13:43 33.77938 -112.04125 9887 ft 271 kts 312°
2026-04-23 13:43 33.79288 -112.05694 10756 ft 277 kts 312°
2026-04-23 13:43 33.80668 -112.07316 11729 ft 278 kts 311°
2026-04-23 13:44 33.82030 -112.08916 12648 ft 277 kts 311°
2026-04-23 13:44 33.83386 -112.10517 13610 ft 278 kts 311°
2026-04-23 13:44 33.84765 -112.12140 14545 ft 279 kts 310°
2026-04-23 13:44 33.86141 -112.13766 15401 ft 282 kts 310°
2026-04-23 13:45 33.87080 -112.14868 15960 ft 284 kts 310°
2026-04-23 13:45 33.88949 -112.17080 17045 ft 288 kts 310°
2026-04-23 13:45 33.90373 -112.18761 17876 ft 290 kts 309°
2026-04-23 13:45 33.91809 -112.20454 18664 ft 293 kts 309°
2026-04-23 13:46 33.93252 -112.22172 19433 ft 295 kts 309°
2026-04-23 13:46 33.94733 -112.23919 20144 ft 299 kts 309°
2026-04-23 13:46 33.96212 -112.25671 20867 ft 302 kts 309°
2026-04-23 13:46 33.97715 -112.27450 21529 ft 306 kts 309°
2026-04-23 13:47 33.99231 -112.29249 22286 ft 307 kts 309°
2026-04-23 13:47 34.00745 -112.31039 22889 ft 311 kts 309°
2026-04-23 13:47 34.02300 -112.32883 23527 ft 314 kts 309°
2026-04-23 13:47 34.03945 -112.34638 24172 ft 319 kts 314°
2026-04-23 13:48 34.05653 -112.36332 24740 ft 321 kts 312°
2026-04-23 13:48 34.07353 -112.38034 25363 ft 322 kts 313°
2026-04-23 13:48 34.09080 -112.39763 25922 ft 325 kts 311°
2026-04-23 13:48 34.10848 -112.41554 26003 ft 341 kts 312°
2026-04-23 13:49 34.12725 -112.43446 26018 ft 357 kts 313°
2026-04-23 13:49 34.14659 -112.45391 26018 ft 371 kts 313°
2026-04-23 13:49 34.16677 -112.47427 26019 ft 378 kts 313°
2026-04-23 13:49 34.18679 -112.49437 26016 ft 378 kts 313°
2026-04-23 13:50 34.20706 -112.51472 26016 ft 378 kts 313°
2026-04-23 13:50 34.22720 -112.53503 26014 ft 378 kts 313°
2026-04-23 13:50 34.24726 -112.55534 26012 ft 378 kts 313°
2026-04-23 13:50 34.26738 -112.57562 26015 ft 377 kts 313°
2026-04-23 13:51 34.28755 -112.59608 26012 ft 377 kts 313°
2026-04-23 13:51 34.30760 -112.61629 26017 ft 377 kts 313°
2026-04-23 13:51 34.32761 -112.63659 26023 ft 377 kts 313°
2026-04-23 13:51 34.34785 -112.65705 26032 ft 377 kts 312°
2026-04-23 13:52 34.36792 -112.67742 26040 ft 377 kts 312°
2026-04-23 13:52 34.38793 -112.69771 26052 ft 377 kts 312°
2026-04-23 13:52 34.40806 -112.71809 26056 ft 378 kts 312°
2026-04-23 13:52 34.42811 -112.73852 26062 ft 378 kts 312°
2026-04-23 13:53 34.44830 -112.75893 26064 ft 378 kts 312°
2026-04-23 13:53 34.46858 -112.77961 26049 ft 379 kts 313°
2026-04-23 13:53 34.48860 -112.79996 26035 ft 379 kts 312°
2026-04-23 13:53 34.50891 -112.82072 26033 ft 379 kts 312°
2026-04-23 13:54 34.52910 -112.84122 26035 ft 379 kts 313°
2026-04-23 13:54 34.54924 -112.86179 26040 ft 379 kts 313°
2026-04-23 13:54 34.56943 -112.88234 26045 ft 379 kts 313°
2026-04-23 13:54 34.58947 -112.90283 26045 ft 379 kts 312°
2026-04-23 13:55 34.60966 -112.92348 26051 ft 378 kts 312°
2026-04-23 13:55 34.62964 -112.94379 26055 ft 378 kts 312°
2026-04-23 13:55 34.64971 -112.96442 26050 ft 378 kts 312°
2026-04-23 13:55 34.66983 -112.98495 26053 ft 378 kts 313°
2026-04-23 13:56 34.68995 -113.00558 26054 ft 378 kts 313°
2026-04-23 13:56 34.71014 -113.02623 26053 ft 378 kts 312°
2026-04-23 13:56 34.73015 -113.04678 26051 ft 378 kts 313°
2026-04-23 13:56 34.74974 -113.06814 26034 ft 372 kts 305°
2026-04-23 13:57 34.76202 -113.09445 26051 ft 360 kts 289°
2026-04-23 13:57 34.77271 -113.12220 26035 ft 362 kts 291°
2026-04-23 13:57 34.78323 -113.14973 26033 ft 362 kts 291°
2026-04-23 13:57 34.79394 -113.17733 26033 ft 362 kts 291°
2026-04-23 13:58 34.80471 -113.20528 26031 ft 362 kts 291°
2026-04-23 13:58 34.81520 -113.23269 26028 ft 362 kts 291°
2026-04-23 13:58 34.82584 -113.26037 26024 ft 362 kts 291°
2026-04-23 13:58 34.83653 -113.28803 26026 ft 361 kts 291°
2026-04-23 13:59 34.84711 -113.31569 26029 ft 361 kts 291°
2026-04-23 13:59 34.85779 -113.34351 26026 ft 361 kts 291°
2026-04-23 13:59 34.86834 -113.37105 26032 ft 361 kts 291°
2026-04-23 13:59 34.87902 -113.39901 26036 ft 362 kts 291°
2026-04-23 14:00 34.88607 -113.41743 26034 ft 361 kts 291°
2026-04-23 14:00 34.90013 -113.45413 26034 ft 362 kts 291°
2026-04-23 14:00 34.91065 -113.48180 26029 ft 362 kts 291°
2026-04-23 14:00 34.91887 -113.51047 26025 ft 356 kts 279°
2026-04-23 14:01 34.92422 -113.53981 26023 ft 357 kts 282°
2026-04-23 14:01 34.92992 -113.56943 26019 ft 357 kts 281°
2026-04-23 14:01 34.93547 -113.59839 26020 ft 357 kts 281°
2026-04-23 14:01 34.94099 -113.62792 26017 ft 357 kts 281°
2026-04-23 14:02 34.94663 -113.65743 26026 ft 357 kts 281°
2026-04-23 14:02 34.95210 -113.68655 26030 ft 357 kts 281°
2026-04-23 14:02 34.95766 -113.71615 26035 ft 357 kts 281°
2026-04-23 14:02 34.96333 -113.74578 26031 ft 358 kts 280°
2026-04-23 14:03 34.96878 -113.77498 26038 ft 358 kts 280°
2026-04-23 14:03 34.97434 -113.80466 26039 ft 359 kts 280°
2026-04-23 14:03 34.97989 -113.83418 26036 ft 359 kts 281°
2026-04-23 14:03 34.98535 -113.86369 26038 ft 359 kts 280°
2026-04-23 14:04 34.99096 -113.89328 26039 ft 359 kts 281°
2026-04-23 14:04 34.99652 -113.92308 26039 ft 359 kts 281°
2026-04-23 14:04 35.00199 -113.95264 26040 ft 359 kts 281°
2026-04-23 14:04 35.00756 -113.98232 26044 ft 359 kts 281°
2026-04-23 14:05 35.01308 -114.01195 26044 ft 360 kts 281°
2026-04-23 14:05 35.01852 -114.04161 26043 ft 360 kts 281°
2026-04-23 14:05 35.02418 -114.07154 26035 ft 360 kts 281°
2026-04-23 14:05 35.02956 -114.10116 26031 ft 360 kts 281°
2026-04-23 14:06 35.03508 -114.13065 26026 ft 360 kts 281°
2026-04-23 14:06 35.04059 -114.16071 26022 ft 360 kts 281°
2026-04-23 14:06 35.04942 -114.18893 26009 ft 368 kts 298°
2026-04-23 14:06 35.06414 -114.21449 26018 ft 367 kts 298°
2026-04-23 14:07 35.07818 -114.24046 26021 ft 368 kts 299°
2026-04-23 14:07 35.10662 -114.29257 26019 ft 368 kts 298°
2026-04-23 14:07 35.12058 -114.31849 25843 ft 372 kts 298°
2026-04-23 14:08 35.13514 -114.34511 25586 ft 377 kts 299°
2026-04-23 14:08 35.14964 -114.37191 25253 ft 383 kts 299°
2026-04-23 14:08 35.16421 -114.39879 24786 ft 383 kts 299°
2026-04-23 14:08 35.17899 -114.42603 24263 ft 383 kts 298°
2026-04-23 14:09 35.19351 -114.45274 23751 ft 382 kts 300°
2026-04-23 14:09 35.20792 -114.47955 23235 ft 377 kts 300°
2026-04-23 14:09 35.22236 -114.50620 22726 ft 372 kts 300°
2026-04-23 14:09 35.23656 -114.53241 22223 ft 367 kts 299°
2026-04-23 14:10 35.25043 -114.55812 21732 ft 363 kts 299°
2026-04-23 14:10 35.26418 -114.58371 21227 ft 359 kts 300°
2026-04-23 14:10 35.27787 -114.60912 20713 ft 355 kts 300°
2026-04-23 14:10 35.29118 -114.63374 20205 ft 344 kts 300°
2026-04-23 14:11 35.30404 -114.65771 19716 ft 333 kts 300°
2026-04-23 14:11 35.31656 -114.68087 19244 ft 324 kts 300°
2026-04-23 14:11 35.32871 -114.70351 18785 ft 316 kts 300°
2026-04-23 14:11 35.34057 -114.72562 18348 ft 309 kts 300°
2026-04-23 14:12 35.35234 -114.74747 17907 ft 303 kts 300°
2026-04-23 14:12 35.36371 -114.76868 17469 ft 298 kts 300°
2026-04-23 14:12 35.37503 -114.78988 17038 ft 293 kts 300°
2026-04-23 14:12 35.38611 -114.81055 16629 ft 289 kts 300°
2026-04-23 14:13 35.39705 -114.83093 16226 ft 286 kts 300°
2026-04-23 14:13 35.40774 -114.85101 15857 ft 282 kts 300°
2026-04-23 14:13 35.41843 -114.87093 15520 ft 280 kts 300°
2026-04-23 14:13 35.42911 -114.89089 15180 ft 279 kts 301°
2026-04-23 14:14 35.43957 -114.91052 14852 ft 277 kts 301°
2026-04-23 14:14 35.45014 -114.93027 14513 ft 276 kts 301°
2026-04-23 14:14 35.46171 -114.94881 14160 ft 279 kts 316°
2026-04-23 14:14 35.47931 -114.95894 13838 ft 286 kts 339°
2026-04-23 14:15 35.49811 -114.96652 13365 ft 281 kts 336°
2026-04-23 14:15 35.51671 -114.97433 12703 ft 282 kts 338°
2026-04-23 14:15 35.53496 -114.98206 12037 ft 281 kts 338°
2026-04-23 14:15 35.55330 -114.98981 11354 ft 280 kts 339°
2026-04-23 14:16 35.57173 -114.99762 10678 ft 279 kts 339°
2026-04-23 14:16 35.58975 -115.00523 10021 ft 277 kts 339°
2026-04-23 14:16 35.60774 -115.01286 9361 ft 272 kts 340°
2026-04-23 14:16 35.62554 -115.02041 8689 ft 268 kts 340°
2026-04-23 14:17 35.64289 -115.02757 8028 ft 264 kts 346°
2026-04-23 14:17 35.66076 -115.02689 7621 ft 251 kts 12°
2026-04-23 14:17 35.67761 -115.02235 7320 ft 248 kts 11°
2026-04-23 14:17 35.69465 -115.01796 7046 ft 253 kts 11°
2026-04-23 14:18 35.71173 -115.01363 6763 ft 246 kts 11°
2026-04-23 14:18 35.72826 -115.00960 6455 ft 238 kts 11°
2026-04-23 14:18 35.74412 -115.00586 6158 ft 227 kts 11°
2026-04-23 14:18 35.75919 -115.00208 6013 ft 212 kts 11°
2026-04-23 14:19 35.77338 -114.99844 6002 ft 208 kts 11°
2026-04-23 14:19 35.78759 -114.99474 6007 ft 207 kts 11°
2026-04-23 14:19 35.80157 -114.99109 6008 ft 206 kts 11°
2026-04-23 14:19 35.81570 -114.98742 6009 ft 206 kts 11°
2026-04-23 14:20 35.82973 -114.98376 6012 ft 205 kts 11°
2026-04-23 14:20 35.84371 -114.98008 6013 ft 205 kts 11°
2026-04-23 14:20 35.85760 -114.97636 6016 ft 205 kts 11°
2026-04-23 14:20 35.87164 -114.97260 6017 ft 205 kts 11°
2026-04-23 14:21 35.88556 -114.96892 5982 ft 205 kts 11°
2026-04-23 14:21 35.89952 -114.96555 5981 ft 205 kts 11°
2026-04-23 14:21 35.91345 -114.96219 5982 ft 204 kts 11°
2026-04-23 14:21 35.92754 -114.95879 5984 ft 204 kts 11°
2026-04-23 14:22 35.94136 -114.95544 5984 ft 204 kts 11°
2026-04-23 14:22 35.95531 -114.95203 5985 ft 204 kts 11°
2026-04-23 14:22 35.96934 -114.94859 5985 ft 204 kts 11°
2026-04-23 14:22 35.98333 -114.94515 5983 ft 205 kts 11°
2026-04-23 14:23 35.99721 -114.94177 5985 ft 205 kts 11°
2026-04-23 14:23 36.01138 -114.93830 5984 ft 205 kts 11°
2026-04-23 14:23 36.02526 -114.93512 5982 ft 205 kts
2026-04-23 14:23 36.03908 -114.93926 5997 ft 206 kts 338°
2026-04-23 14:24 36.05110 -114.94878 5988 ft 208 kts 321°
2026-04-23 14:24 36.06129 -114.96153 5896 ft 207 kts 315°
2026-04-23 14:24 36.07045 -114.97469 5755 ft 197 kts 313°
2026-04-23 14:24 36.07901 -114.98776 5494 ft 194 kts 312°
2026-04-23 14:25 36.08738 -115.00075 5238 ft 191 kts 311°
2026-04-23 14:25 36.09555 -115.01327 5031 ft 186 kts 311°
2026-04-23 14:25 36.10329 -115.02560 4987 ft 180 kts 310°
2026-04-23 14:25 36.11093 -115.03801 4862 ft 182 kts 310°
2026-04-23 14:26 36.11876 -115.05023 4710 ft 181 kts 312°
2026-04-23 14:26 36.12692 -115.06213 4581 ft 179 kts 313°
2026-04-23 14:26 36.13482 -115.07359 4393 ft 174 kts 313°
2026-04-23 14:26 36.14246 -115.08503 4216 ft 167 kts 312°
2026-04-23 14:27 36.14972 -115.09578 4035 ft 162 kts 313°
2026-04-23 14:27 36.15683 -115.10644 3870 ft 157 kts 313°
2026-04-23 14:27 36.16381 -115.11662 3677 ft 155 kts 314°
2026-04-23 14:27 36.17065 -115.12675 3448 ft 148 kts 311°
2026-04-23 14:28 36.17627 -115.13625 3271 ft 128 kts 307°
2026-04-23 14:28 36.18016 -115.14570 3083 ft 119 kts 295°
2026-04-23 14:28 36.18261 -115.15533 2931 ft 115 kts 292°
2026-04-23 14:28 36.18552 -115.16440 2746 ft 113 kts 304°
2026-04-23 14:29 36.19028 -115.17177 2588 ft 109 kts 315°
2026-04-23 14:29 36.19549 -115.17844 2448 ft 107 kts 317°
2026-04-23 14:29 36.20073 -115.18507 2311 ft 105 kts 317°
2026-04-23 14:29 36.20573 -115.19138 2178 ft 100 kts 317°
2026-04-23 14:30 36.20956 -115.19622 2190 ft 43 kts 314°
2026-04-23 14:30 36.21063 -115.19758 2194 ft 11 kts 308°
2026-04-23 14:30 36.21046 -115.19829 2196 ft 3 kts 239°
2026-04-23 14:30 36.21043 -115.19836 2195 ft 3 kts 240°
2026-04-23 14:31 36.21017 -115.19881 2196 ft 6 kts 222°
2026-04-23 14:31 36.20984 -115.19881 2196 ft 2 kts 135°
2026-04-23 14:31 36.20980 -115.19876 2196 ft 0 kts 135°